sat.trackr.live / text

‹ back to catalog

STARLINK-1559

NORAD 46077 · 2020-055BC

PAYLOAD ACTIVE UNKNOWN

§ Identity

Operator
Country
US
Launch date
2020-08-07
Launch site
AFETR
Launch vehicle
Mass (kg)
RCS (m²)

Purposes: comms

External: N2YO · Heavens-Above · Gunter

§ Orbital elements

Epoch: 2026-09-19T22:28:21.936000Z

Period
93.02 min
Inclination
53.0160°
Eccentricity
0.0003783
Mean motion
15.48013787 rev/d
Perigee alt
420.0 km
Apogee alt
425.1 km
Semi-major
6,800.7 km
B*
1.0243e-3
RAAN
236.7079°
Arg perigee
43.0509°
Mean anomaly
317.0793°
Rev number
33,949

§ Raw data

STARLINK-15591 46077U 20055BC  26262.93636500  .00054398  00000+0  10243-2 0  99962 46077  53.0160 236.7079 0003783  43.0509 317.0793 15.48013787339499

JSON: /api/v1/satellites/46077 · /tle

For live sub-satellite position, see the globe view (requires WebGL).

§ Visibility from observer

Set your observer location to see the next 7 days of passes ≥ 10°. The values pass through the URL so the page stays shareable.

No JS? Fill the form by hand. The geolocation button needs JavaScript.